Regional Weather Roundup
Issued by NWS Spokane, WA

Home | Current Version | Previous Version | Text Only | Print | Product List | Glossary On
Versions: 1 2 3 4 5 6 7 8 9 10 11 12 13 14 15 16 17 18 19 20 21 22 23 24 25 26 27 28 29 30 31 32 33 34 35 36 37 38 39 40 41 42 43 44 45 46 47 48 49 50
000
NZUS01 KOTX 271025
RWROTX

Eastern Washington/Northern Idaho Roundup
National Weather Service, Spokane WA
200 AM PST MON FEB 27 2017

Note: "fair" indicated few or no clouds below 12,000 feet with no
significant weather and/or obstructions to visibility.

...Northeast Washington and Northern Idaho Panhandle...

CITY           SKY/WX    TMP DP  RH WIND       PRES   REMARKS
Spokane Intl   FOG       26  24  92 W5        29.64S VSB 1   WCI  20
Spokane Downto CLOUDY    29  27  92 W3        29.67S
Coeur d Alene  LGT SNOW  28  27  93 CALM      29.64S FOG
Deer Park      CLOUDY    23  19  85 CALM      29.65F FOG
Sandpoint      CLOUDY    28  27  93 CALM      29.64F
Bonners Ferry  CLOUDY    23  21  93 CALM      29.63F

...Southeast Washington and southern Idaho Panhandle...

CITY           SKY/WX    TMP DP  RH WIND       PRES   REMARKS
Walla Walla    LGT SNOW  33  33 100 SW3       29.71R VSB 3/4
Pullman/Moscow CLOUDY    26  24  92 CALM      29.64F
Lewiston       LGT SNOW  32  30  92 CALM      29.67S VSB 3/4
Lowell           N/A     33  30  88 CALM      29.68F
Grangeville    CLOUDY    27  25  93 E3        29.58F

...Columbia Basin...

CITY           SKY/WX    TMP DP  RH WIND       PRES   REMARKS
Ephrata        CLEAR     28  16  60 N7        29.70S WCI  21
Moses Lake     MOCLDY    25  20  81 NW5       29.71F WCI  19
Pasco          CLOUDY    34  31  88 N5        29.76S WCI  30
Richland       CLOUDY    35  33  94 CALM      29.76S
Hermiston      LGT RAIN  33  33 100 W3        29.75S
Pendleton      SNOW      31  31 100 NW7       29.71S VSB 1/4 WCI  24

...East Slopes Cascades...

CITY           SKY/WX    TMP DP  RH WIND       PRES   REMARKS
The Dalles     CLOUDY    32  28  85 CALM      29.78S
Yakima         CLOUDY    32  29  88 W5        29.73S WCI  27
Ellensburg     CLOUDY    26  20  77 N5        29.69S WCI  20
Stampede Pass  CLOUDY   N/A N/A N/A VRB3      29.59S HAZE
Wenatchee      PTCLDY    26  25  96 N3        29.71S
Omak           MOCLDY    28  16  60 NW10      29.72S WCI  19
Chelan           N/A     27  18  69 MISG        N/A
Sunnyside      FOG       31  31  99 CALM      29.75S VSB 1/4

...Southern British Columbia...

CITY           SKY/WX    TMP DP  RH WIND       PRES   REMARKS
Penticton      PTCLDY    23  12  63 N7        29.76S WCI  15
Cranbrook      MOCLDY     9   7  92 CALM      29.63F
Osoyoos          N/A     28  18  64 N8          N/A  WCI  20
Creston          N/A     25  16  68 NE6         N/A  WCI  18

...Western Montana...

CITY           SKY/WX    TMP DP  RH WIND       PRES   REMARKS
Kalispell      CLOUDY    17   9  70 N10       29.64S WCI   5
Libby            N/A     18  16  93 CALM      29.63F
Missoula       LGT SNOW  25  24  96 CALM      29.59F FOG

...Neighboring Cities...

CITY           SKY/WX    TMP DP  RH WIND       PRES   REMARKS
Seattle        CLOUDY    37  35  92 S5        29.76S
Portland       CLOUDY    37  35  92 CALM      29.82R
Boise          CLOUDY    30  23  75 SW10      29.65R WCI  21
Great Falls    LGT SNOW  13  10  88 NE7       29.66F FOG     WCI   3
Calgary        PTCLDY     3   0  85 S7        29.64F WCI  -9



USA.gov is the U.S. government's official web portal to all federal, state and local government web resources and services.